{"data":{"norad_id":57622,"epoch":"2026-09-20T18:47:36.242304Z","epoch_age_seconds":103165,"freshness":"FRESH","line1":"1 57622U 23119W   26263.78305836  .00000233  00000+0  17982-4 0  9995","line2":"2 57622  43.0026  59.7474 0001359 270.0236  90.0460 15.27577043172924","mean_motion":15.27577043,"eccentricity":0.0001359,"inclination_deg":43.0026,"raan_deg":59.7474,"arg_perigee_deg":270.0236,"mean_anomaly_deg":90.046,"bstar":1.7982e-5,"rev_number":17292,"period_min":94.266931190062,"perigee_km":482.12551398196,"apogee_km":483.99038676947,"semimajor_km":6861.1949503757,"source":"CELESTRAK","updated_at":"2026-09-21T09:00:33.664356Z"}}